Timeline UpdatesTrip UpdatesNews PostsPvt PostsTravel TipsAdmin PostsConv PostsFollowed PostsChat RequestsBlog PostsPNR Posts

Disclaimer
Search
 
 
Tue Sep 30, 2014 17:23:18 ISTHomeTrainsΣChainsAtlasPNRForumGalleryNewsFAQTripsMembersLoginFeedback
No Recent News for this Train
Other Trains in the News **new
Latest...
⇐ Return Journey: Train# 59812

59811/Haldighati Passenger

Time-Table HAS CHANGED.
Sep 02 (12:23AM)
Change Departure Station:
Change Arrival Station:
Post a Train Travel TipPost a Train Travel Tip **new
Post a Comment/Question/Picture/VideoPost a Comment/Question/Picture/Video
Pantry/Catering
✕ NO Pantry Car
✓ Catering Avbl
Loco/Rake Reversals
KOTA/Kota Junction (5);
RSA - Rake Sharing
Comes to AF as 59811, departs as 59814
Rake/Coach Composition
Loco-SLR+Handicapped-GS1-GS2-GS3-GS4-GS5-S1-S2-S3-GS6-GS7-GS8-SLR; Total Length-13 Coaches
Loco
Rtm-Kota:- WDM 3A RTM shed Kota-AF:- WAM 4E BRC shed Re# 549005-21
News    PNR    Forum    Time-Table    Availability    Fare Chart    Map    Arr/Dep History    Trips    Gallery    ΣChains    X/O    Timeline    
Travel Time: 18h 2m    51 halts    Distance: 601 km    Avg Speed: 33 km/hr
Type: Passenger
Zone: WR/Western
Departs @ 08:30 (Avg 3m late)
Platform# ???
SMTWTFS
Ratlam Junction/RTM 
Arrives @ 02:32 +1 night (Avg 28m late)
Platform# ???
SMTWTFS
Dumariya/DY 

51 halts. 75 intermediate Stations between Ratlam Junction and Dumariya

Show ALL intermediate Stations  Show Old Time-Table

#CodeStation NameX/OArrivesAvgDepartsAvgHaltPFDay#KmSpeedElevZoneAddress
1RTMRatlam Junction (7)»  -09:55 08:30+3--10.060495mWRRatlam, Madhya Pradesh
2NLINamli  10:10 08:43+1210:11 08:45+131 2m--112.954494mWRNamli, Madhya Pradesh
3BRLABrayla ChaurasiX  10:22 08:58+1310:23 09:00+141 2m--124.528486mWRBadayla Chorasi Rd, Madhya Pradesh
4JAOJaora (2)  10:32 09:18+1310:33 09:20+141 2m1132.960476mWRJaora, Madhya Pradesh
5DODDhodhar  10:47 09:37+1510:48 09:39+151 2m--149.870478mWRDhodar, Madhya Pradesh
6KCNRKachnara Road new halt!!  09:47+1509:49+152m--159.253498mWRSarsod, Madhya Pradesh
7DLDDalauda  11:10 10:01+1511:11 10:03+161 2m--169.759469mWRDalauda, Madhya Pradesh
8MDSMandsor (2)  11:23 10:18+1811:24 10:20+201 2m--184.352436mWRMandsaur, Madhya Pradesh
9PIPPiplia (1)  11:40 10:38+2211:41 10:40+221 2m11100.048472mWRPanth Pipalia, Madhya Pradesh
10MLGMalhargarh  11:51 10:50+2411:52 10:52+241 2m--1108.052466mWRMalhargarh, Madhya Pradesh
11HKLHarkia Khal  12:22 11:06+712:23 11:08+81 2m--1120.229455mWRState Highway 31, Rajasthan
12NMHNimach (3)  12:45 11:35-112:55 11:40+310 5m--1133.358490mWRMDR 11A, Madhya Pradesh
13BIWKBisalwas KalanX  13:04 11:50+1213:05 11:52+111 2m--1143.117477mWRMDR 11A, Rajasthan
14JWOJawad RoadX  13:15 12:16+813:16 12:18+81 2m--1149.831462mWRNayagaon, Rajasthan
15NBHNimbahera (1)  13:26 12:38+713:27 12:40+71 2m11160.038441mWRNimbahera, Rajasthan
16GRFGambhiri RoadO  13:36 12:53+913:37 12:55+91 2m11168.429441mWRNational Highway 79, Rajasthan
17SMPShambhupura  13:47 13:14+713:48 13:16+71 2m--1177.621423mWRShambhupura, Rajasthan
18CORChittaurgarh Junction (5)X  14:00 13:50+314:10+210 20m--1189.315403mWRChittorgarh, Rajasthan
19CNAChanderiya (2)  14:38-414:40+02m--1196.252408mWRChittorgarh, Rajasthan
20PSLIParsoli  15:18+715:20+72m--1229.353380mWCRNH 76, Rajasthan
21MLGHMandalgarh  15:48+715:50+92m--1253.948382mWCRMandalgarh, Rajasthan
22SMPAShampura  16:10+916:12+82m--1269.829395mWCRMandalgarh, Rajasthan
23URMLUpramal  16:22+716:23+81m--1274.7107390mWCRMDR 41, Rajasthan
24JNRIJalindri  16:31+1016:32+221m--1289.055 WCR
25SNARSrinagar RajasthanX  16:58+3217:00+342m--1313.021259mWCRShreenagar RJ, Rajasthan
26BUDIBundiO  17:48 17:30+1417:50 17:35+152 5m--1323.314256mWCRBundi, Rajasthan
27KOTAKota Junction (5)↵¶20:20+221:00+140m11361.041256mWCRKota, Rajasthan
28GQLGurla  21:08+921:10+82m--1366.460251mWCRSH 33, Rajasthan
29KPTNKeshorai PatanX  21:19 21:18+721:20+71 2m--1374.482243mWCRSH 33, Rajasthan
30AREArnetha  21:29 21:28+721:30+71 2m--1385.369239mWCRShreepura, Rajasthan
31KPZKaprenX  21:39 21:38+721:40+151 2m--1394.575234mWCRKota - Lalsot Mega Highway, Rajasthan
32GKBGhataka VaranaXO  21:49 21:48+1821:50+211 2m--1404.570232mWCRSH 33, Rajasthan
33LBNLaban (2)X  21:59 21:58+2122:00+211 2m--1413.957225mWCRBundi, Rajasthan
34LKELakheri (3)X  22:09 22:08+2122:10+211 2m--1421.466228mWCRBundi, Rajasthan
35IDGIndargarh Sumerganj Mandi (2)X  22:20+2322:22+272m--1432.478247mWCRIndargarh, Rajasthan
36AMLIAmliX  22:32+2722:34+272m--1445.565233mWCRSawai Madhopur, Rajasthan
37RWJRawania DungarXO  22:41+2822:43+332m--1453.156266mWCRSawai Madhopur, Rajasthan
38KTAKushtala  22:52+3322:54+322m--1461.627283mWCRNH 116, Rajasthan
39SWMSawai Madhopur Junction (4)  23:10+1523:15+165m--1468.777266mWCRSawai Madhopur, Rajasthan
40RNTRanthambhore  23:23+3423:25+342m--1478.969248mWCRMDR 111, Rajasthan
41MXLMokholiX  23:30 23:33+3623:35+335 2m--1488.165242mWCRMDR 111, Rajasthan
42MLZMalarna  23:45+3323:47+352m--1498.929236mWCRSawai Madhopur, Rajasthan
43NMDNomodaX  00:03 00:02+2600:04+251 2m--2506.064238mWCRMDR 111, Rajasthan
44NNWNarayanpur Tatwara (2)  00:14 00:13+2100:15+221 2m--2515.780256mWCRSawai Madhopur, Rajasthan
45LRULalpur UmriO  00:24 00:23+2600:25+441 2m--2526.313276mWCRSH 1, Rajasthan
46GGCGangapur City (3)XO  00:55+1201:05+1110m--2532.669270mWCRGangapur, Rajasthan
47COOChhoti Odai  01:17 01:16+2601:18+341 2m--2545.347257mWCRSH 25, Rajasthan
48PDZPiliodaX  01:28+3101:30+302m--2553.246247mWCRSH 1, Rajasthan
49KNDPKhandip new halt!!  01:38-01:40-2m--2559.355245mWCRState Highway 1, Rajasthan
50SMBJShri Mahabirji (3)X  01:48+2401:50+352m--2566.734240mWCRKarauli, Rajasthan
51HANHindaun City (2)  02:08+2502:10+252m--2576.972230mWCRKarauli, Rajasthan
52FSPFateh Singhpura  02:21+3302:23+322m--2590.171223mWCRState Highway 1, Rajasthan
53DYDumariya (2)•XO  02:32+2802:34+352m--2600.712211mWCRState Highway 1, Rajasthan
54BXNBayana Junction (3)  03:20+903:45+025m--2609.754198mWCRBayana, Rajasthan
55BAMABirambad (1)  03:51 03:50-03:52-1 2m12614.256196mNCRDumariya, Rajasthan
56BRBandh Bareta (1)  03:58 03:57+1403:59+141 2m12618.957203mNCRDumariya, Rajasthan
57NGLTNaglatula (1)  04:06 04:05-04:07-1 2m12624.663209mNCRBayana, Rajasthan
58BIQBansi Paharpur (1)  04:14 04:13+1404:15+151 2m12630.958216mNCRRupbas, Rajasthan
59DXKDhana Kherli (1)  04:22 04:21-04:23-1 2m12636.762192mNCRFatehpur Sikri, Uttar Pradesh
60RBSRupbas (2)  04:31 04:30+1404:32+171 2m--2643.946178mNCRJAGNER ROAD, Rajasthan
61AEDAulenda (1)  04:40 04:39-04:41-1 2m12649.266179mNCRKiraoli, Uttar Pradesh
62FTSFatehpur Sikri (2)  04:50 04:49+1504:51+191 2m--2658.144176mNCRAgra, Uttar Pradesh
63SNPRSingarpur (1)X  04:59 04:58-05:00-1 2m12663.273168mNCRRupbas, Rajasthan
64KLBKiraoli (1)  05:07 05:06+1605:08+171 2m12670.561174mNCRKiraoli, Uttar Pradesh
65MIQMirhakur (1)  05:17 05:16+1605:18+161 2m12678.645172mNCRIdgah Agra, Uttar Pradesh
66PTLIPathauli (1)  05:27 05:26+1605:28+181 2m12684.557174mNCRAgra Fort, Uttar Pradesh
67IDHIdgah Agra Junction (3)  05:36+1905:38+192m--2692.16168mNCRAgra, Uttar Pradesh
68AFAgra Fort (3)  06:00+12-22694.2-170mNCRRakabganj, Uttar Pradesh
Scroll to Top
Scroll to Bottom